Time,TemperatureF,DewpointF,PressureIn,WindDirection,WindDirectionDegrees,WindSpeedMPH,WindSpeedGustMPH,Humidity,HourlyPrecipIn,Conditions,Clouds,dailyrainin,SoftwareType,DateUTC
2013-06-11 00:00:00,67.5,67.0,29.79,NW,313,1.0,-999.0,95,-99.99,,,0.00,ADS-WS1 bash script,2013-06-11 04:00:00,
2013-06-11 00:05:00,67.5,67.0,29.79,NNW,338,1.0,-999.0,95,-99.99,,,0.00,ADS-WS1 bash script,2013-06-11 04:05:00,
2013-06-11 00:10:00,67.5,67.0,29.79,NW,313,0.0,-999.0,95,-99.99,,,0.00,ADS-WS1 bash script,2013-06-11 04:10:00,
2013-06-11 00:15:00,67.5,66.0,29.79,NW,319,0.0,-999.0,94,-99.99,,,0.00,ADS-WS1 bash script,2013-06-11 04:15:00,
2013-06-11 00:20:00,67.7,67.0,29.79,NW,313,0.0,-999.0,95,-99.99,,,0.00,ADS-WS1 bash script,2013-06-11 04:20:00,
2013-06-11 00:25:00,67.5,66.0,29.79,NW,309,0.0,-999.0,94,-99.99,,,0.00,ADS-WS1 bash script,2013-06-11 04:25:00,
2013-06-11 00:30:00,67.2,65.0,29.79,NW,313,0.0,-999.0,93,-99.99,,,0.00,ADS-WS1 bash script,2013-06-11 04:30:00,
2013-06-11 00:35:00,67.2,65.0,29.79,NW,313,0.0,-999.0,93,-99.99,,,0.00,ADS-WS1 bash script,2013-06-11 04:35:00,
2013-06-11 00:40:00,67.3,65.0,29.79,NW,313,0.0,-999.0,94,-99.99,,,0.00,ADS-WS1 bash script,2013-06-11 04:40:00,
2013-06-11 00:50:00,67.3,66.0,29.80,NW,309,0.0,-999.0,95,-99.99,,,0.00,ADS-WS1 bash script,2013-06-11 04:50:00,
2013-06-11 00:55:00,67.2,66.0,29.80,NW,309,0.0,-999.0,95,-99.99,,,0.00,ADS-WS1 bash script,2013-06-11 04:55:00,
2013-06-11 01:00:00,67.2,66.0,29.80,WNW,282,0.0,-999.0,95,-99.99,,,0.00,ADS-WS1 bash script,2013-06-11 05:00:00,
2013-06-11 01:05:00,67.2,66.0,29.80,NW,313,0.0,-999.0,95,-99.99,,,0.00,ADS-WS1 bash script,2013-06-11 05:05:00,
2013-06-11 01:15:00,67.2,66.0,29.80,North,0,0.0,-999.0,95,-99.99,,,0.00,ADS-WS1 bash script,2013-06-11 05:15:00,
2013-06-11 01:20:00,67.2,66.0,29.80,NE,43,0.0,-999.0,95,-99.99,,,0.00,ADS-WS1 bash script,2013-06-11 05:20:00,
2013-06-11 01:25:00,67.2,66.0,29.80,North,0,1.0,-999.0,95,-99.99,,,0.00,ADS-WS1 bash script,2013-06-11 05:25:00,
2013-06-11 01:30:00,67.2,66.0,29.80,North,0,0.0,-999.0,96,-99.99,,,0.00,ADS-WS1 bash script,2013-06-11 05:30:00,
2013-06-11 01:35:00,67.3,66.0,29.81,NE,43,2.0,-999.0,95,-99.99,,,0.00,ADS-WS1 bash script,2013-06-11 05:35:00,
2013-06-11 01:45:00,67.3,66.0,29.81,NW,313,1.0,-999.0,95,-99.99,,,0.00,ADS-WS1 bash script,2013-06-11 05:45:00,
2013-06-11 01:50:00,67.2,66.0,29.81,NW,324,2.0,-999.0,95,-99.99,,,0.00,ADS-WS1 bash script,2013-06-11 05:50:00,
2013-06-11 01:55:00,67.2,66.0,29.80,West,268,0.0,-999.0,95,-99.99,,,0.00,ADS-WS1 bash script,2013-06-11 05:55:00,
2013-06-11 02:00:00,67.2,66.0,29.81,West,268,1.0,-999.0,95,-99.99,,,0.00,ADS-WS1 bash script,2013-06-11 06:00:00,
2013-06-11 02:05:00,67.2,65.0,29.81,NW,313,0.0,-999.0,94,-99.99,,,0.00,ADS-WS1 bash script,2013-06-11 06:05:00,
2013-06-11 02:10:00,67.2,65.0,29.80,North,0,0.0,-999.0,93,-99.99,,,0.00,ADS-WS1 bash script,2013-06-11 06:10:00,
2013-06-11 02:15:00,67.0,65.0,29.81,NW,313,0.0,-999.0,94,-99.99,,,0.00,ADS-WS1 bash script,2013-06-11 06:15:00,
2013-06-11 02:25:00,66.8,65.0,29.80,West,268,0.0,-999.0,93,-99.99,,,0.00,ADS-WS1 bash script,2013-06-11 06:25:00,
2013-06-11 02:30:00,66.8,65.0,29.81,NW,313,0.0,-999.0,94,-99.99,,,0.00,ADS-WS1 bash script,2013-06-11 06:30:00,
2013-06-11 02:35:00,66.8,65.0,29.81,NW,313,0.0,-999.0,94,-99.99,,,0.00,ADS-WS1 bash script,2013-06-11 06:35:00,
2013-06-11 02:40:00,66.8,65.0,29.81,NW,313,0.0,-999.0,94,-99.99,,,0.00,ADS-WS1 bash script,2013-06-11 06:40:00,
2013-06-11 02:45:00,66.8,65.0,29.81,NW,313,0.0,-999.0,94,-99.99,,,0.00,ADS-WS1 bash script,2013-06-11 06:45:00,
2013-06-11 02:55:00,66.6,66.0,29.81,NNW,341,3.0,-999.0,95,-99.99,,,0.00,ADS-WS1 bash script,2013-06-11 06:55:00,
2013-06-11 03:00:00,66.6,65.0,29.81,NE,43,3.0,-999.0,94,-99.99,,,0.00,ADS-WS1 bash script,2013-06-11 07:00:00,
2013-06-11 03:05:00,66.6,65.0,29.81,NNW,331,0.0,-999.0,94,-99.99,,,0.00,ADS-WS1 bash script,2013-06-11 07:05:00,
2013-06-11 03:15:00,66.8,65.0,29.81,NNW,328,0.0,-999.0,94,-99.99,,,0.00,ADS-WS1 bash script,2013-06-11 07:15:00,
2013-06-11 03:25:00,66.6,65.0,29.82,NNW,335,2.0,-999.0,94,-99.99,,,0.00,ADS-WS1 bash script,2013-06-11 07:25:00,
2013-06-11 03:35:00,66.6,65.0,29.82,NW,313,0.0,-999.0,94,-99.99,,,0.00,ADS-WS1 bash script,2013-06-11 07:35:00,
2013-06-11 03:40:00,66.5,64.0,29.82,West,279,2.0,-999.0,93,-99.99,,,0.00,ADS-WS1 bash script,2013-06-11 07:40:00,
2013-06-11 03:45:00,66.1,64.0,29.82,WNW,290,2.0,-999.0,94,-99.99,,,0.00,ADS-WS1 bash script,2013-06-11 07:45:00,
2013-06-11 03:50:00,66.1,64.0,29.83,NNW,340,4.0,-999.0,93,-99.99,,,0.00,ADS-WS1 bash script,2013-06-11 07:50:00,
2013-06-11 03:55:00,66.1,64.0,29.82,WNW,290,3.0,-999.0,93,-99.99,,,0.00,ADS-WS1 bash script,2013-06-11 07:55:00,
2013-06-11 04:05:00,66.1,64.0,29.82,NW,304,1.0,-999.0,93,-99.99,,,0.00,ADS-WS1 bash script,2013-06-11 08:05:00,
2013-06-11 04:10:00,66.1,64.0,29.82,West,268,2.0,-999.0,93,-99.99,,,0.00,ADS-WS1 bash script,2013-06-11 08:10:00,
2013-06-11 04:15:00,66.1,64.0,29.83,NW,313,1.0,-999.0,93,-99.99,,,0.00,ADS-WS1 bash script,2013-06-11 08:15:00,
2013-06-11 04:20:00,65.9,64.0,29.83,NW,313,2.0,-999.0,93,-99.99,,,0.00,ADS-WS1 bash script,2013-06-11 08:20:00,
2013-06-11 04:25:00,65.9,64.0,29.82,WNW,295,0.0,-999.0,93,-99.99,,,0.00,ADS-WS1 bash script,2013-06-11 08:25:00,
2013-06-11 04:30:00,66.1,64.0,29.83,NNW,328,0.0,-999.0,94,-99.99,,,0.00,ADS-WS1 bash script,2013-06-11 08:30:00,
2013-06-11 04:35:00,66.1,64.0,29.83,NNW,340,1.0,-999.0,93,-99.99,,,0.00,ADS-WS1 bash script,2013-06-11 08:35:00,
2013-06-11 04:40:00,66.1,64.0,29.83,WNW,283,0.0,-999.0,93,-99.99,,,0.00,ADS-WS1 bash script,2013-06-11 08:40:00,
2013-06-11 04:45:00,65.9,64.0,29.83,NW,313,1.0,-999.0,94,-99.99,,,0.00,ADS-WS1 bash script,2013-06-11 08:45:00,
2013-06-11 04:50:00,65.9,64.0,29.83,WNW,283,2.0,-999.0,93,-99.99,,,0.00,ADS-WS1 bash script,2013-06-11 08:50:00,
2013-06-11 04:55:00,65.7,64.0,29.83,West,268,1.0,-999.0,94,-99.99,,,0.00,ADS-WS1 bash script,2013-06-11 08:55:00,
2013-06-11 05:00:00,65.7,64.0,29.83,NW,313,2.0,-999.0,94,-99.99,,,0.00,ADS-WS1 bash script,2013-06-11 09:00:00,
2013-06-11 05:05:00,65.7,64.0,29.83,NW,306,0.0,-999.0,94,-99.99,,,0.00,ADS-WS1 bash script,2013-06-11 09:05:00,
2013-06-11 05:10:00,65.7,64.0,29.83,NW,306,3.0,-999.0,94,-99.99,,,0.00,ADS-WS1 bash script,2013-06-11 09:10:00,
2013-06-11 05:15:00,65.7,64.0,29.83,NW,319,3.0,-999.0,94,-99.99,,,0.00,ADS-WS1 bash script,2013-06-11 09:15:00,
2013-06-11 05:20:00,65.7,65.0,29.84,WNW,300,2.0,-999.0,95,-99.99,,,0.00,ADS-WS1 bash script,2013-06-11 09:20:00,
2013-06-11 05:25:00,65.7,65.0,29.84,NW,313,0.0,-999.0,95,-99.99,,,0.00,ADS-WS1 bash script,2013-06-11 09:25:00,
2013-06-11 05:30:00,65.6,65.0,29.84,WNW,285,4.0,-999.0,95,-99.99,,,0.00,ADS-WS1 bash script,2013-06-11 09:30:00,
2013-06-11 05:35:00,65.6,65.0,29.84,NW,313,1.0,-999.0,95,-99.99,,,0.00,ADS-WS1 bash script,2013-06-11 09:35:00,
2013-06-11 05:40:00,65.7,65.0,29.84,NW,313,0.0,-999.0,95,-99.99,,,0.00,ADS-WS1 bash script,2013-06-11 09:40:00,
2013-06-11 05:50:00,65.6,65.0,29.85,WNW,289,2.0,-999.0,95,-99.99,,,0.00,ADS-WS1 bash script,2013-06-11 09:50:00,
2013-06-11 05:55:00,65.6,65.0,29.86,WNW,302,3.0,-999.0,95,-99.99,,,0.00,ADS-WS1 bash script,2013-06-11 09:55:00,
2013-06-11 06:00:00,65.6,64.0,29.86,West,275,4.0,-999.0,94,-99.99,,,0.00,ADS-WS1 bash script,2013-06-11 10:00:00,
2013-06-11 06:05:00,65.6,64.0,29.86,WNW,289,3.0,-999.0,94,-99.99,,,0.00,ADS-WS1 bash script,2013-06-11 10:05:00,
2013-06-11 06:10:00,65.6,65.0,29.86,NW,324,1.0,-999.0,95,-99.99,,,0.00,ADS-WS1 bash script,2013-06-11 10:10:00,
2013-06-11 06:20:00,65.7,64.0,29.86,NW,317,0.0,-999.0,94,-99.99,,,0.00,ADS-WS1 bash script,2013-06-11 10:20:00,
2013-06-11 06:25:00,65.6,64.0,29.86,WNW,290,1.0,-999.0,94,-99.99,,,0.00,ADS-WS1 bash script,2013-06-11 10:25:00,
2013-06-11 06:30:00,65.7,64.0,29.86,NW,309,3.0,-999.0,94,-99.99,,,0.00,ADS-WS1 bash script,2013-06-11 10:30:00,
2013-06-11 06:35:00,65.6,64.0,29.86,WNW,282,3.0,-999.0,93,-99.99,,,0.00,ADS-WS1 bash script,2013-06-11 10:35:00,
2013-06-11 06:40:00,65.7,64.0,29.86,WNW,302,1.0,-999.0,93,-99.99,,,0.00,ADS-WS1 bash script,2013-06-11 10:40:00,
2013-06-11 06:50:00,65.6,64.0,29.86,WNW,299,2.0,-999.0,93,-99.99,,,0.00,ADS-WS1 bash script,2013-06-11 10:50:00,
2013-06-11 06:55:00,65.6,64.0,29.87,WNW,302,2.0,-999.0,93,-99.99,,,0.00,ADS-WS1 bash script,2013-06-11 10:55:00,
2013-06-11 07:00:00,65.9,64.0,29.87,NW,313,1.0,-999.0,93,-99.99,,,0.00,ADS-WS1 bash script,2013-06-11 11:00:00,
2013-06-11 07:05:00,65.9,64.0,29.87,West,268,0.0,-999.0,93,-99.99,,,0.00,ADS-WS1 bash script,2013-06-11 11:05:00,
2013-06-11 07:10:00,66.1,64.0,29.87,NW,313,1.0,-999.0,93,-99.99,,,0.00,ADS-WS1 bash script,2013-06-11 11:10:00,
2013-06-11 07:15:00,66.3,64.0,29.87,SW,224,0.0,-999.0,92,-99.99,,,0.00,ADS-WS1 bash script,2013-06-11 11:15:00,
2013-06-11 07:20:00,66.5,64.0,29.88,NW,313,2.0,-999.0,92,-99.99,,,0.00,ADS-WS1 bash script,2013-06-11 11:20:00,
2013-06-11 07:25:00,66.6,65.0,29.88,West,268,0.0,-999.0,92,-99.99,,,0.00,ADS-WS1 bash script,2013-06-11 11:25:00,
2013-06-11 07:30:00,66.8,65.0,29.88,NW,313,0.0,-999.0,92,-99.99,,,0.00,ADS-WS1 bash script,2013-06-11 11:30:00,
2013-06-11 07:35:00,66.6,65.0,29.88,West,268,1.0,-999.0,92,-99.99,,,0.00,ADS-WS1 bash script,2013-06-11 11:35:00,
2013-06-11 07:40:00,66.8,65.0,29.88,NW,313,3.0,-999.0,92,-99.99,,,0.00,ADS-WS1 bash script,2013-06-11 11:40:00,
2013-06-11 07:45:00,66.8,65.0,29.88,SW,224,0.0,-999.0,92,-99.99,,,0.00,ADS-WS1 bash script,2013-06-11 11:45:00,
2013-06-11 07:50:00,67.0,65.0,29.88,West,268,3.0,-999.0,92,-99.99,,,0.00,ADS-WS1 bash script,2013-06-11 11:50:00,
2013-06-11 08:00:00,67.0,64.0,29.88,WNW,299,2.0,-999.0,91,-99.99,,,0.00,ADS-WS1 bash script,2013-06-11 12:00:00,
2013-06-11 08:05:00,67.0,64.0,29.89,WNW,290,4.0,-999.0,91,-99.99,,,0.00,ADS-WS1 bash script,2013-06-11 12:05:00,
2013-06-11 08:10:00,67.0,64.0,29.88,NNW,328,1.0,-999.0,91,-99.99,,,0.00,ADS-WS1 bash script,2013-06-11 12:10:00,
2013-06-11 08:15:00,67.2,64.0,29.88,NW,313,0.0,-999.0,91,-99.99,,,0.00,ADS-WS1 bash script,2013-06-11 12:15:00,
2013-06-11 08:20:00,67.3,64.0,29.88,WNW,302,4.0,-999.0,90,-99.99,,,0.00,ADS-WS1 bash script,2013-06-11 12:20:00,
2013-06-11 08:25:00,67.3,64.0,29.88,West,279,1.0,-999.0,90,-99.99,,,0.00,ADS-WS1 bash script,2013-06-11 12:25:00,
2013-06-11 08:30:00,67.5,65.0,29.88,NW,313,1.0,-999.0,90,-99.99,,,0.00,ADS-WS1 bash script,2013-06-11 12:30:00,
2013-06-11 08:35:00,67.5,65.0,29.89,NNE,21,2.0,-999.0,90,-99.99,,,0.00,ADS-WS1 bash script,2013-06-11 12:35:00,
2013-06-11 08:40:00,67.5,65.0,29.89,West,268,3.0,-999.0,90,-99.99,,,0.00,ADS-WS1 bash script,2013-06-11 12:40:00,
2013-06-11 08:45:00,67.7,65.0,29.90,West,268,3.0,-999.0,90,-99.99,,,0.00,ADS-WS1 bash script,2013-06-11 12:45:00,
2013-06-11 08:50:00,68.1,65.0,29.89,NW,313,2.0,-999.0,90,-99.99,,,0.00,ADS-WS1 bash script,2013-06-11 12:50:00,
2013-06-11 08:55:00,68.2,64.0,29.89,WNW,302,2.0,-999.0,88,-99.99,,,0.00,ADS-WS1 bash script,2013-06-11 12:55:00,
2013-06-11 09:00:00,68.4,64.0,29.89,West,268,0.0,-999.0,88,-99.99,,,0.00,ADS-WS1 bash script,2013-06-11 13:00:00,
2013-06-11 09:10:00,68.8,65.0,29.90,NW,313,2.0,-999.0,88,-99.99,,,0.00,ADS-WS1 bash script,2013-06-11 13:10:00,
2013-06-11 09:15:00,69.1,65.0,29.90,West,268,2.0,-999.0,87,-99.99,,,0.00,ADS-WS1 bash script,2013-06-11 13:15:00,
2013-06-11 09:20:00,69.7,66.0,29.89,West,275,3.0,-999.0,87,-99.99,,,0.00,ADS-WS1 bash script,2013-06-11 13:20:00,
2013-06-11 09:25:00,69.3,65.0,29.89,NW,313,2.0,-999.0,87,-99.99,,,0.00,ADS-WS1 bash script,2013-06-11 13:25:00,
2013-06-11 09:30:00,69.7,65.0,29.89,NW,313,0.0,-999.0,86,-99.99,,,0.00,ADS-WS1 bash script,2013-06-11 13:30:00,
2013-06-11 09:35:00,69.7,65.0,29.90,WNW,283,5.0,-999.0,84,-99.99,,,0.00,ADS-WS1 bash script,2013-06-11 13:35:00,
2013-06-11 09:40:00,70.4,65.0,29.89,NW,313,3.0,-999.0,84,-99.99,,,0.00,ADS-WS1 bash script,2013-06-11 13:40:00,
2013-06-11 09:45:00,70.8,66.0,29.89,West,268,5.0,-999.0,84,-99.99,,,0.00,ADS-WS1 bash script,2013-06-11 13:45:00,
2013-06-11 09:50:00,70.4,64.0,29.89,NW,307,3.0,-999.0,81,-99.99,,,0.00,ADS-WS1 bash script,2013-06-11 13:50:00,
2013-06-11 09:55:00,69.9,64.0,29.90,NNW,335,3.0,-999.0,81,-99.99,,,0.00,ADS-WS1 bash script,2013-06-11 13:55:00,
2013-06-11 10:00:00,70.8,65.0,29.90,WNW,290,4.0,-999.0,82,-99.99,,,0.00,ADS-WS1 bash script,2013-06-11 14:00:00,
2013-06-11 10:05:00,70.6,64.0,29.89,WNW,302,6.0,-999.0,80,-99.99,,,0.00,ADS-WS1 bash script,2013-06-11 14:05:00,
2013-06-11 10:10:00,70.8,65.0,29.89,NNW,328,3.0,-999.0,81,-99.99,,,0.00,ADS-WS1 bash script,2013-06-11 14:10:00,
2013-06-11 10:15:00,72.0,65.0,29.90,West,268,6.0,-999.0,80,-99.99,,,0.00,ADS-WS1 bash script,2013-06-11 14:15:00,
2013-06-11 10:20:00,72.7,65.0,29.90,North,9,5.0,-999.0,76,-99.99,,,0.00,ADS-WS1 bash script,2013-06-11 14:20:00,
2013-06-11 10:30:00,73.1,65.0,29.90,WNW,286,1.0,-999.0,76,-99.99,,,0.00,ADS-WS1 bash script,2013-06-11 14:30:00,
2013-06-11 10:35:00,73.3,64.0,29.91,NW,313,6.0,-999.0,74,-99.99,,,0.00,ADS-WS1 bash script,2013-06-11 14:35:00,
2013-06-11 10:40:00,72.6,65.0,29.90,NNW,340,2.0,-999.0,76,-99.99,,,0.00,ADS-WS1 bash script,2013-06-11 14:40:00,
2013-06-11 10:45:00,72.6,65.0,29.90,WNW,286,3.0,-999.0,77,-99.99,,,0.00,ADS-WS1 bash script,2013-06-11 14:45:00,
2013-06-11 10:50:00,73.3,65.0,29.90,West,268,3.0,-999.0,77,-99.99,,,0.00,ADS-WS1 bash script,2013-06-11 14:50:00,
2013-06-11 11:00:00,73.8,66.0,29.90,WNW,285,4.0,-999.0,76,-99.99,,,0.00,ADS-WS1 bash script,2013-06-11 15:00:00,
2013-06-11 11:05:00,73.5,66.0,29.91,WNW,289,6.0,-999.0,76,-99.99,,,0.00,ADS-WS1 bash script,2013-06-11 15:05:00,
2013-06-11 11:10:00,73.8,65.0,29.90,NW,313,5.0,-999.0,75,-99.99,,,0.00,ADS-WS1 bash script,2013-06-11 15:10:00,
2013-06-11 11:15:00,74.4,65.0,29.90,West,276,5.0,-999.0,74,-99.99,,,0.00,ADS-WS1 bash script,2013-06-11 15:15:00,
2013-06-11 11:20:00,74.0,64.0,29.91,NW,313,5.0,-999.0,71,-99.99,,,0.00,ADS-WS1 bash script,2013-06-11 15:20:00,
2013-06-11 11:25:00,73.8,65.0,29.91,North,0,5.0,-999.0,73,-99.99,,,0.00,ADS-WS1 bash script,2013-06-11 15:25:00,
2013-06-11 11:30:00,74.0,64.0,29.91,NW,313,5.0,-999.0,72,-99.99,,,0.00,ADS-WS1 bash script,2013-06-11 15:30:00,
2013-06-11 11:35:00,72.9,64.0,29.91,NNW,335,4.0,-999.0,73,-99.99,,,0.00,ADS-WS1 bash script,2013-06-11 15:35:00,
2013-06-11 11:40:00,74.2,64.0,29.91,NW,309,4.0,-999.0,72,-99.99,,,0.00,ADS-WS1 bash script,2013-06-11 15:40:00,
2013-06-11 11:45:00,74.9,65.0,29.91,WNW,289,4.0,-999.0,72,-99.99,,,0.00,ADS-WS1 bash script,2013-06-11 15:45:00,
2013-06-11 11:50:00,75.3,64.0,29.91,West,279,2.0,-999.0,68,-99.99,,,0.00,ADS-WS1 bash script,2013-06-11 15:50:00,
2013-06-11 12:00:00,75.1,64.0,29.91,North,0,6.0,-999.0,68,-99.99,,,0.00,ADS-WS1 bash script,2013-06-11 16:00:00,
2013-06-11 12:10:00,75.6,65.0,29.91,WNW,296,0.0,-999.0,68,-99.99,,,0.00,ADS-WS1 bash script,2013-06-11 16:10:00,
2013-06-11 12:15:00,75.8,65.0,29.91,NW,313,2.0,-999.0,67,-99.99,,,0.00,ADS-WS1 bash script,2013-06-11 16:15:00,
2013-06-11 12:20:00,76.0,64.0,29.91,NW,324,4.0,-999.0,66,-99.99,,,0.00,ADS-WS1 bash script,2013-06-11 16:20:00,
2013-06-11 12:30:00,77.1,65.0,29.91,NNW,335,2.0,-999.0,66,-99.99,,,0.00,ADS-WS1 bash script,2013-06-11 16:30:00,
2013-06-11 12:35:00,77.2,65.0,29.91,WNW,290,3.0,-999.0,65,-99.99,,,0.00,ADS-WS1 bash script,2013-06-11 16:35:00,
2013-06-11 12:40:00,76.7,66.0,29.91,North,0,5.0,-999.0,67,-99.99,,,0.00,ADS-WS1 bash script,2013-06-11 16:40:00,
2013-06-11 12:45:00,76.7,65.0,29.91,NNE,21,3.0,-999.0,65,-99.99,,,0.00,ADS-WS1 bash script,2013-06-11 16:45:00,
2013-06-11 12:50:00,77.2,65.0,29.92,NNW,347,2.0,-999.0,66,-99.99,,,0.00,ADS-WS1 bash script,2013-06-11 16:50:00,
2013-06-11 12:55:00,77.6,66.0,29.91,NW,313,3.0,-999.0,65,-99.99,,,0.00,ADS-WS1 bash script,2013-06-11 16:55:00,
2013-06-11 13:00:00,76.7,65.0,29.91,NW,313,3.0,-999.0,65,-99.99,,,0.00,ADS-WS1 bash script,2013-06-11 17:00:00,
2013-06-11 13:05:00,77.2,65.0,29.91,NNE,26,2.0,-999.0,65,-99.99,,,0.00,ADS-WS1 bash script,2013-06-11 17:05:00,
2013-06-11 13:10:00,77.8,66.0,29.91,NE,53,0.0,-999.0,65,-99.99,,,0.00,ADS-WS1 bash script,2013-06-11 17:10:00,
2013-06-11 13:15:00,77.8,65.0,29.91,NE,46,5.0,-999.0,62,-99.99,,,0.00,ADS-WS1 bash script,2013-06-11 17:15:00,
2013-06-11 13:25:00,77.6,65.0,29.91,WSW,245,3.0,-999.0,62,-99.99,,,0.00,ADS-WS1 bash script,2013-06-11 17:25:00,
2013-06-11 13:30:00,78.1,64.0,29.91,North,0,6.0,-999.0,61,-99.99,,,0.00,ADS-WS1 bash script,2013-06-11 17:30:00,
2013-06-11 13:35:00,78.1,64.0,29.91,West,268,3.0,-999.0,61,-99.99,,,0.00,ADS-WS1 bash script,2013-06-11 17:35:00,
2013-06-11 13:40:00,79.2,66.0,29.91,West,268,5.0,-999.0,62,-99.99,,,0.00,ADS-WS1 bash script,2013-06-11 17:40:00,
2013-06-11 13:45:00,79.7,67.0,29.90,NNE,29,3.0,-999.0,63,-99.99,,,0.00,ADS-WS1 bash script,2013-06-11 17:45:00,
2013-06-11 13:50:00,79.6,66.0,29.90,West,268,2.0,-999.0,59,-99.99,,,0.00,ADS-WS1 bash script,2013-06-11 17:50:00,
2013-06-11 13:55:00,79.6,66.0,29.90,West,268,2.0,-999.0,60,-99.99,,,0.00,ADS-WS1 bash script,2013-06-11 17:55:00,
2013-06-11 14:00:00,79.4,65.0,29.90,West,268,10.0,-999.0,59,-99.99,,,0.00,ADS-WS1 bash script,2013-06-11 18:00:00,
2013-06-11 14:05:00,79.6,65.0,29.90,NW,313,6.0,-999.0,58,-99.99,,,0.00,ADS-WS1 bash script,2013-06-11 18:05:00,
2013-06-11 14:10:00,79.7,66.0,29.90,NW,313,5.0,-999.0,59,-99.99,,,0.00,ADS-WS1 bash script,2013-06-11 18:10:00,
2013-06-11 14:15:00,79.9,66.0,29.90,WNW,290,2.0,-999.0,61,-99.99,,,0.00,ADS-WS1 bash script,2013-06-11 18:15:00,
2013-06-11 14:20:00,80.5,66.0,29.90,NW,313,6.0,-999.0,60,-99.99,,,0.00,ADS-WS1 bash script,2013-06-11 18:20:00,
2013-06-11 14:25:00,80.8,67.0,29.90,WNW,290,1.0,-999.0,60,-99.99,,,0.00,ADS-WS1 bash script,2013-06-11 18:25:00,
2013-06-11 14:30:00,80.5,65.0,29.89,SSW,208,4.0,-999.0,57,-99.99,,,0.00,ADS-WS1 bash script,2013-06-11 18:30:00,
2013-06-11 14:35:00,80.8,66.0,29.89,NW,320,10.0,-999.0,58,-99.99,,,0.00,ADS-WS1 bash script,2013-06-11 18:35:00,
2013-06-11 14:45:00,80.3,64.0,29.88,West,268,6.0,-999.0,55,-99.99,,,0.00,ADS-WS1 bash script,2013-06-11 18:45:00,
2013-06-11 14:50:00,80.8,66.0,29.89,NW,324,2.0,-999.0,58,-99.99,,,0.00,ADS-WS1 bash script,2013-06-11 18:50:00,
2013-06-11 14:55:00,80.8,65.0,29.89,WNW,302,5.0,-999.0,55,-99.99,,,0.00,ADS-WS1 bash script,2013-06-11 18:55:00,
2013-06-11 15:00:00,81.4,66.0,29.89,West,275,4.0,-999.0,56,-99.99,,,0.00,ADS-WS1 bash script,2013-06-11 19:00:00,
2013-06-11 15:05:00,81.4,66.0,29.89,NNE,14,2.0,-999.0,56,-99.99,,,0.00,ADS-WS1 bash script,2013-06-11 19:05:00,
2013-06-11 15:10:00,80.8,65.0,29.89,North,4,5.0,-999.0,54,-99.99,,,0.00,ADS-WS1 bash script,2013-06-11 19:10:00,
2013-06-11 15:20:00,81.4,65.0,29.88,West,278,4.0,-999.0,54,-99.99,,,0.00,ADS-WS1 bash script,2013-06-11 19:20:00,
2013-06-11 15:25:00,81.5,66.0,29.88,West,268,3.0,-999.0,55,-99.99,,,0.00,ADS-WS1 bash script,2013-06-11 19:25:00,
2013-06-11 15:30:00,82.1,67.0,29.88,West,279,3.0,-999.0,58,-99.99,,,0.00,ADS-WS1 bash script,2013-06-11 19:30:00,
2013-06-11 15:35:00,82.1,66.0,29.87,SW,228,6.0,-999.0,55,-99.99,,,0.00,ADS-WS1 bash script,2013-06-11 19:35:00,
2013-06-11 15:40:00,82.4,66.0,29.88,SW,224,2.0,-999.0,55,-99.99,,,0.00,ADS-WS1 bash script,2013-06-11 19:40:00,
2013-06-11 15:50:00,82.6,65.0,29.87,WNW,286,2.0,-999.0,50,-99.99,,,0.00,ADS-WS1 bash script,2013-06-11 19:50:00,
2013-06-11 15:55:00,83.2,66.0,29.87,WNW,283,6.0,-999.0,52,-99.99,,,0.00,ADS-WS1 bash script,2013-06-11 19:55:00,
2013-06-11 16:00:00,83.3,67.0,29.87,WNW,296,3.0,-999.0,53,-99.99,,,0.00,ADS-WS1 bash script,2013-06-11 20:00:00,
2013-06-11 16:05:00,83.5,67.0,29.87,West,259,6.0,-999.0,52,-99.99,,,0.00,ADS-WS1 bash script,2013-06-11 20:05:00,
2013-06-11 16:10:00,83.3,67.0,29.87,WNW,283,6.0,-999.0,53,-99.99,,,0.00,ADS-WS1 bash script,2013-06-11 20:10:00,
2013-06-11 16:15:00,83.0,66.0,29.88,NW,313,2.0,-999.0,52,-99.99,,,0.00,ADS-WS1 bash script,2013-06-11 20:15:00,
2013-06-11 16:20:00,83.7,67.0,29.87,NNW,335,2.0,-999.0,52,-99.99,,,0.00,ADS-WS1 bash script,2013-06-11 20:20:00,
2013-06-11 16:25:00,83.3,66.0,29.88,West,275,8.0,-999.0,51,-99.99,,,0.00,ADS-WS1 bash script,2013-06-11 20:25:00,
2013-06-11 16:30:00,83.3,66.0,29.87,WNW,287,8.0,-999.0,52,-99.99,,,0.00,ADS-WS1 bash script,2013-06-11 20:30:00,
2013-06-11 16:35:00,82.8,66.0,29.87,NW,316,2.0,-999.0,52,-99.99,,,0.00,ADS-WS1 bash script,2013-06-11 20:35:00,
2013-06-11 16:40:00,82.4,66.0,29.87,WNW,287,1.0,-999.0,54,-99.99,,,0.00,ADS-WS1 bash script,2013-06-11 20:40:00,
2013-06-11 16:50:00,83.7,67.0,29.87,WNW,290,2.0,-999.0,52,-99.99,,,0.00,ADS-WS1 bash script,2013-06-11 20:50:00,
2013-06-11 16:55:00,84.2,68.0,29.87,NW,307,3.0,-999.0,54,-99.99,,,0.00,ADS-WS1 bash script,2013-06-11 20:55:00,
2013-06-11 17:00:00,84.1,68.0,29.87,NW,307,1.0,-999.0,54,-99.99,,,0.00,ADS-WS1 bash script,2013-06-11 21:00:00,
2013-06-11 17:05:00,83.2,67.0,29.87,West,273,2.0,-999.0,54,-99.99,,,0.00,ADS-WS1 bash script,2013-06-11 21:05:00,
2013-06-11 17:10:00,83.0,67.0,29.87,NW,320,0.0,-999.0,55,-99.99,,,0.00,ADS-WS1 bash script,2013-06-11 21:10:00,
2013-06-11 17:15:00,83.5,68.0,29.86,WNW,283,2.0,-999.0,54,-99.99,,,0.00,ADS-WS1 bash script,2013-06-11 21:15:00,
2013-06-11 17:20:00,83.2,67.0,29.86,NW,313,2.0,-999.0,54,-99.99,,,0.00,ADS-WS1 bash script,2013-06-11 21:20:00,
2013-06-11 17:25:00,83.2,67.0,29.86,WNW,289,6.0,-999.0,53,-99.99,,,0.00,ADS-WS1 bash script,2013-06-11 21:25:00,
2013-06-11 17:30:00,83.2,67.0,29.86,NNE,16,2.0,-999.0,55,-99.99,,,0.00,ADS-WS1 bash script,2013-06-11 21:30:00,
2013-06-11 17:35:00,82.8,66.0,29.86,West,279,8.0,-999.0,52,-99.99,,,0.00,ADS-WS1 bash script,2013-06-11 21:35:00,
2013-06-11 17:40:00,82.8,67.0,29.86,WSW,258,2.0,-999.0,55,-99.99,,,0.00,ADS-WS1 bash script,2013-06-11 21:40:00,
2013-06-11 17:45:00,82.3,66.0,29.86,SW,235,1.0,-999.0,54,-99.99,,,0.00,ADS-WS1 bash script,2013-06-11 21:45:00,
2013-06-11 17:50:00,82.4,66.0,29.86,WSW,239,5.0,-999.0,55,-99.99,,,0.00,ADS-WS1 bash script,2013-06-11 21:50:00,
2013-06-11 17:55:00,82.4,66.0,29.86,WNW,290,8.0,-999.0,55,-99.99,,,0.00,ADS-WS1 bash script,2013-06-11 21:55:00,
2013-06-11 18:00:00,82.1,66.0,29.86,WNW,286,5.0,-999.0,54,-99.99,,,0.00,ADS-WS1 bash script,2013-06-11 22:00:00,
2013-06-11 18:05:00,81.9,66.0,29.85,West,272,3.0,-999.0,55,-99.99,,,0.00,ADS-WS1 bash script,2013-06-11 22:05:00,
2013-06-11 18:10:00,81.9,67.0,29.85,WNW,303,1.0,-999.0,56,-99.99,,,0.00,ADS-WS1 bash script,2013-06-11 22:10:00,
2013-06-11 18:15:00,81.4,65.0,29.85,WNW,283,5.0,-999.0,55,-99.99,,,0.00,ADS-WS1 bash script,2013-06-11 22:15:00,
2013-06-11 18:20:00,81.4,66.0,29.85,WNW,282,3.0,-999.0,56,-99.99,,,0.00,ADS-WS1 bash script,2013-06-11 22:20:00,
2013-06-11 18:25:00,81.5,67.0,29.85,West,268,3.0,-999.0,56,-99.99,,,0.00,ADS-WS1 bash script,2013-06-11 22:25:00,
2013-06-11 18:30:00,81.5,67.0,29.85,West,268,5.0,-999.0,56,-99.99,,,0.00,ADS-WS1 bash script,2013-06-11 22:30:00,
2013-06-11 18:35:00,81.4,66.0,29.84,West,263,2.0,-999.0,57,-99.99,,,0.00,ADS-WS1 bash script,2013-06-11 22:35:00,
2013-06-11 18:40:00,81.2,66.0,29.85,West,278,3.0,-999.0,56,-99.99,,,0.00,ADS-WS1 bash script,2013-06-11 22:40:00,
2013-06-11 18:45:00,81.0,66.0,29.85,West,279,2.0,-999.0,56,-99.99,,,0.00,ADS-WS1 bash script,2013-06-11 22:45:00,
2013-06-11 18:50:00,81.2,66.0,29.85,WNW,299,1.0,-999.0,58,-99.99,,,0.00,ADS-WS1 bash script,2013-06-11 22:50:00,
2013-06-11 18:55:00,81.2,66.0,29.85,West,268,3.0,-999.0,57,-99.99,,,0.00,ADS-WS1 bash script,2013-06-11 22:55:00,
2013-06-11 19:00:00,81.0,66.0,29.84,WSW,245,1.0,-999.0,58,-99.99,,,0.00,ADS-WS1 bash script,2013-06-11 23:00:00,
2013-06-11 19:05:00,81.0,66.0,29.84,WNW,290,0.0,-999.0,58,-99.99,,,0.00,ADS-WS1 bash script,2013-06-11 23:05:00,
2013-06-11 19:10:00,80.8,66.0,29.85,West,268,4.0,-999.0,58,-99.99,,,0.00,ADS-WS1 bash script,2013-06-11 23:10:00,
2013-06-11 19:15:00,80.8,66.0,29.85,West,268,5.0,-999.0,58,-99.99,,,0.00,ADS-WS1 bash script,2013-06-11 23:15:00,
2013-06-11 19:20:00,80.5,65.0,29.85,WNW,290,5.0,-999.0,58,-99.99,,,0.00,ADS-WS1 bash script,2013-06-11 23:20:00,
2013-06-11 19:25:00,80.5,65.0,29.85,NW,313,2.0,-999.0,58,-99.99,,,0.00,ADS-WS1 bash script,2013-06-11 23:25:00,
2013-06-11 19:30:00,80.1,65.0,29.85,WNW,299,2.0,-999.0,58,-99.99,,,0.00,ADS-WS1 bash script,2013-06-11 23:30:00,
2013-06-11 19:35:00,79.9,66.0,29.85,WSW,245,4.0,-999.0,60,-99.99,,,0.00,ADS-WS1 bash script,2013-06-11 23:35:00,
2013-06-11 19:40:00,79.7,66.0,29.85,WNW,290,3.0,-999.0,60,-99.99,,,0.00,ADS-WS1 bash script,2013-06-11 23:40:00,
2013-06-11 19:45:00,79.6,66.0,29.86,West,268,2.0,-999.0,60,-99.99,,,0.00,ADS-WS1 bash script,2013-06-11 23:45:00,
2013-06-11 19:50:00,79.6,66.0,29.84,West,268,2.0,-999.0,61,-99.99,,,0.00,ADS-WS1 bash script,2013-06-11 23:50:00,
2013-06-11 19:55:00,79.4,66.0,29.85,WSW,254,2.0,-999.0,62,-99.99,,,0.00,ADS-WS1 bash script,2013-06-11 23:55:00,
2013-06-11 20:00:00,79.2,66.0,29.86,NW,313,3.0,-999.0,62,-99.99,,,0.00,ADS-WS1 bash script,2013-06-12 00:00:00,
2013-06-11 20:05:00,79.2,66.0,29.85,NW,313,2.0,-999.0,62,-99.99,,,0.00,ADS-WS1 bash script,2013-06-12 00:05:00,
2013-06-11 20:10:00,79.0,66.0,29.85,NW,313,0.0,-999.0,62,-99.99,,,0.00,ADS-WS1 bash script,2013-06-12 00:10:00,
2013-06-11 20:15:00,79.2,66.0,29.85,WNW,299,1.0,-999.0,62,-99.99,,,0.00,ADS-WS1 bash script,2013-06-12 00:15:00,
2013-06-11 20:20:00,79.2,66.0,29.84,NW,313,0.0,-999.0,62,-99.99,,,0.00,ADS-WS1 bash script,2013-06-12 00:20:00,
2013-06-11 20:25:00,79.4,66.0,29.84,West,268,0.0,-999.0,63,-99.99,,,0.00,ADS-WS1 bash script,2013-06-12 00:25:00,
2013-06-11 20:30:00,79.2,66.0,29.84,NW,313,1.0,-999.0,63,-99.99,,,0.00,ADS-WS1 bash script,2013-06-12 00:30:00,
2013-06-11 20:35:00,79.0,67.0,29.85,SW,224,0.0,-999.0,65,-99.99,,,0.00,ADS-WS1 bash script,2013-06-12 00:35:00,
2013-06-11 20:40:00,79.0,67.0,29.86,West,268,0.0,-999.0,65,-99.99,,,0.00,ADS-WS1 bash script,2013-06-12 00:40:00,
2013-06-11 20:45:00,78.5,66.0,29.85,West,268,0.0,-999.0,65,-99.99,,,0.00,ADS-WS1 bash script,2013-06-12 00:45:00,
2013-06-11 20:55:00,78.1,66.0,29.86,NW,313,0.0,-999.0,66,-99.99,,,0.00,ADS-WS1 bash script,2013-06-12 00:55:00,
2013-06-11 21:00:00,78.0,67.0,29.85,NW,313,0.0,-999.0,67,-99.99,,,0.00,ADS-WS1 bash script,2013-06-12 01:00:00,
2013-06-11 21:05:00,77.8,67.0,29.85,NW,304,0.0,-999.0,67,-99.99,,,0.00,ADS-WS1 bash script,2013-06-12 01:05:00,
2013-06-11 21:10:00,77.6,67.0,29.86,NW,313,0.0,-999.0,69,-99.99,,,0.00,ADS-WS1 bash script,2013-06-12 01:10:00,
2013-06-11 21:15:00,77.2,66.0,29.85,West,279,0.0,-999.0,69,-99.99,,,0.00,ADS-WS1 bash script,2013-06-12 01:15:00,
2013-06-11 21:20:00,76.9,66.0,29.85,West,268,0.0,-999.0,69,-99.99,,,0.00,ADS-WS1 bash script,2013-06-12 01:20:00,
2013-06-11 21:25:00,76.5,66.0,29.85,NW,306,0.0,-999.0,70,-99.99,,,0.00,ADS-WS1 bash script,2013-06-12 01:25:00,
2013-06-11 21:30:00,76.0,66.0,29.85,NW,306,0.0,-999.0,71,-99.99,,,0.00,ADS-WS1 bash script,2013-06-12 01:30:00,
2013-06-11 21:35:00,75.6,66.0,29.86,NW,313,0.0,-999.0,72,-99.99,,,0.00,ADS-WS1 bash script,2013-06-12 01:35:00,
2013-06-11 21:40:00,75.3,65.0,29.86,NW,313,0.0,-999.0,72,-99.99,,,0.00,ADS-WS1 bash script,2013-06-12 01:40:00,
2013-06-11 21:45:00,75.1,65.0,29.86,West,268,0.0,-999.0,72,-99.99,,,0.00,ADS-WS1 bash script,2013-06-12 01:45:00,
2013-06-11 21:50:00,74.9,66.0,29.86,West,268,0.0,-999.0,74,-99.99,,,0.00,ADS-WS1 bash script,2013-06-12 01:50:00,
2013-06-11 21:55:00,74.5,65.0,29.86,West,268,0.0,-999.0,74,-99.99,,,0.00,ADS-WS1 bash script,2013-06-12 01:55:00,
2013-06-11 22:00:00,74.4,65.0,29.85,West,268,0.0,-999.0,75,-99.99,,,0.00,ADS-WS1 bash script,2013-06-12 02:00:00,
2013-06-11 22:05:00,74.2,66.0,29.86,NW,313,0.0,-999.0,76,-99.99,,,0.00,ADS-WS1 bash script,2013-06-12 02:05:00,
2013-06-11 22:10:00,74.0,66.0,29.87,NW,313,0.0,-999.0,76,-99.99,,,0.00,ADS-WS1 bash script,2013-06-12 02:10:00,
2013-06-11 22:15:00,74.0,67.0,29.87,NW,313,0.0,-999.0,78,-99.99,,,0.00,ADS-WS1 bash script,2013-06-12 02:15:00,
2013-06-11 22:20:00,73.8,67.0,29.87,NW,313,0.0,-999.0,78,-99.99,,,0.00,ADS-WS1 bash script,2013-06-12 02:20:00,
2013-06-11 22:25:00,73.8,67.0,29.87,NW,313,0.0,-999.0,79,-99.99,,,0.00,ADS-WS1 bash script,2013-06-12 02:25:00,
2013-06-11 22:30:00,73.8,67.0,29.88,NW,307,0.0,-999.0,79,-99.99,,,0.00,ADS-WS1 bash script,2013-06-12 02:30:00,
2013-06-11 22:35:00,73.8,67.0,29.88,NW,313,0.0,-999.0,79,-99.99,,,0.00,ADS-WS1 bash script,2013-06-12 02:35:00,
2013-06-11 22:40:00,73.6,67.0,29.88,NW,313,0.0,-999.0,79,-99.99,,,0.00,ADS-WS1 bash script,2013-06-12 02:40:00,
2013-06-11 22:50:00,73.5,67.0,29.88,NNW,330,3.0,-999.0,78,-99.99,,,0.00,ADS-WS1 bash script,2013-06-12 02:50:00,
2013-06-11 22:55:00,73.8,66.0,29.88,NW,309,1.0,-999.0,76,-99.99,,,0.00,ADS-WS1 bash script,2013-06-12 02:55:00,
2013-06-11 23:00:00,73.8,66.0,29.88,WNW,283,1.0,-999.0,76,-99.99,,,0.00,ADS-WS1 bash script,2013-06-12 03:00:00,
2013-06-11 23:05:00,73.6,66.0,29.88,West,273,0.0,-999.0,77,-99.99,,,0.00,ADS-WS1 bash script,2013-06-12 03:05:00,
2013-06-11 23:10:00,73.3,65.0,29.88,West,268,2.0,-999.0,77,-99.99,,,0.00,ADS-WS1 bash script,2013-06-12 03:10:00,
2013-06-11 23:15:00,73.1,66.0,29.88,WNW,289,3.0,-999.0,78,-99.99,,,0.00,ADS-WS1 bash script,2013-06-12 03:15:00,
2013-06-11 23:20:00,73.1,65.0,29.89,WNW,289,2.0,-999.0,76,-99.99,,,0.00,ADS-WS1 bash script,2013-06-12 03:20:00,
2013-06-11 23:25:00,73.3,64.0,29.88,WNW,282,0.0,-999.0,75,-99.99,,,0.00,ADS-WS1 bash script,2013-06-12 03:25:00,
2013-06-11 23:30:00,73.3,64.0,29.88,WNW,292,4.0,-999.0,75,-99.99,,,0.00,ADS-WS1 bash script,2013-06-12 03:30:00,
2013-06-11 23:35:00,73.3,64.0,29.87,NW,309,2.0,-999.0,75,-99.99,,,0.00,ADS-WS1 bash script,2013-06-12 03:35:00,
2013-06-11 23:40:00,73.3,64.0,29.88,NW,317,2.0,-999.0,74,-99.99,,,0.00,ADS-WS1 bash script,2013-06-12 03:40:00,
2013-06-11 23:50:00,73.1,64.0,29.88,NW,313,0.0,-999.0,74,-99.99,,,0.00,ADS-WS1 bash script,2013-06-12 03:50:00,
2013-06-11 23:55:00,72.9,64.0,29.88,NNW,330,1.0,-999.0,74,-99.99,,,0.00,ADS-WS1 bash script,2013-06-12 03:55:00,